CW3508 Weather Reports


Display with metric or nautical units.
time (UTC)temp
F
wind
direction
speed
MPH
gust
MPH
rain 1hr
in
rain 24hr
in
rain mn
in
humidity
%
barometer
mb
20260903224530 92 279 0.0 0.0 0.00 0.00 0.00 64 1010.6
20260903224024 92 279 0.0 0.0 0.00 0.00 0.00 64 1010.6
20260903223540 92 279 0.0 0.0 0.00 0.00 0.00 64 1010.6
20260903223046 93 279 0.0 0.0 0.00 0.00 0.00 63 1010.6
20260903222557 93 279 0.0 1.0 0.00 0.00 0.00 63 1010.5
20260903221556 93 279 0.0 0.0 0.00 0.00 0.00 62 1010.5
20260903221032 94 279 0.0 0.0 0.00 0.00 0.00 61 1010.3
20260903220533 94 279 0.0 0.0 0.00 0.00 0.00 60 1010.3
20260903220048 94 279 0.0 0.0 0.00 0.00 0.00 60 1010.3
20260903215537 94 279 0.0 0.0 0.00 0.00 0.00 60 1010.2
20260903215048 94 279 0.0 0.0 0.00 0.00 0.00 59 1010.2
20260903214541 94 279 0.0 0.0 0.00 0.00 0.00 55 1010.2
20260903214030 94 320 0.0 0.0 0.00 0.00 0.00 58 1010.2
20260903213533 94 320 0.0 2.0 0.00 0.00 0.00 60 1010.2
20260903213038 95 276 0.0 2.0 0.00 0.00 0.00 59 1010.2
20260903212523 95 238 0.0 0.0 0.00 0.00 0.00 58 1010.2
20260903212056 95 242 0.0 0.0 0.00 0.00 0.00 58 1010.2
20260903211539 95 242 0.0 0.0 0.00 0.00 0.00 58 1010.2
20260903211032 95 242 0.0 1.0 0.00 0.00 0.00 57 1010.3
20260903210518 95 242 0.0 4.0 0.00 0.00 0.00 56 1010.3
20260903210033 95 297 1.0 4.0 0.00 0.00 0.00 56 1010.3
20260903205520 95 300 0.0 3.0 0.00 0.00 0.00 58 1010.5
20260903205038 95 300 0.0 3.0 0.00 0.00 0.00 57 1010.5
20260903204527 95 248 0.0 1.0 0.00 0.00 0.00 57 1010.5
20260903204103 95 270 0.0 2.0 0.00 0.00 0.00 57 1010.7
20260903203532 95 281 0.0 2.0 0.00 0.00 0.00 57 1010.7
20260903203020 95 181 0.0 2.0 0.00 0.00 0.00 58 1010.7
20260903202529 96 219 0.0 0.0 0.00 0.00 0.00 58 1010.8
20260903202042 96 275 0.0 0.0 0.00 0.00 0.00 57 1010.8
20260903201533 96 273 0.0 0.0 0.00 0.00 0.00 57 1010.8
20260903201034 97 200 0.0 0.0 0.00 0.00 0.00 56 1011.2
20260903200521 97 200 0.0 5.0 0.00 0.00 0.00 55 1011.2
20260903200039 97 261 2.0 5.0 0.00 0.00 0.00 53 1011.2
20260903195528 97 182 0.0 1.0 0.00 0.00 0.00 54 1011.3
20260903195038 97 215 0.0 0.0 0.00 0.00 0.00 55 1011.3
20260903194529 97 215 0.0 0.0 0.00 0.00 0.00 56 1011.3
20260903194025 97 213 0.0 1.0 0.00 0.00 0.00 54 1011.7
20260903193541 97 203 0.0 1.0 0.00 0.00 0.00 54 1011.7
20260903193018 97 165 0.0 1.0 0.00 0.00 0.00 52 1011.7
20260903192530 97 270 0.0 1.0 0.00 0.00 0.00 53 1011.8
20260903192040 97 252 0.0 1.0 0.00 0.00 0.00 55 1011.8
20260903191541 97 289 0.0 1.0 0.00 0.00 0.00 55 1011.8
20260903191032 98 315 0.0 0.0 0.00 0.00 0.00 54 1011.9
20260903190517 98 315 0.0 0.0 0.00 0.00 0.00 54 1011.9
20260903190028 98 274 0.0 0.0 0.00 0.00 0.00 53 1011.9
20260903185026 99 273 1.0 3.0 0.00 0.00 0.00 52 1011.9
20260903184534 99 175 0.0 5.0 0.00 0.00 0.00 53 1011.9
20260903184039 99 282 0.0 5.0 0.00 0.00 0.00 51 1012.1
20260903183527 100 248 0.0 3.0 0.00 0.00 0.00 55 1012.1
20260903183034 100 165 0.0 2.0 0.00 0.00 0.00 54 1012.1
20260903182527 100 216 0.0 0.0 0.00 0.00 0.00 55 1012.4
20260903182023 100 280 0.0 0.0 0.00 0.00 0.00 52 1012.4
20260903181531 101 298 0.0 0.0 0.00 0.00 0.00 51 1012.4
20260903181023 101 298 0.0 2.0 0.00 0.00 0.00 51 1012.5
20260903180045 101 182 0.0 1.0 0.00 0.00 0.00 50 1012.5
20260903175527 100 233 0.0 1.0 0.00 0.00 0.00 52 1012.7
20260903175029 100 329 0.0 1.0 0.00 0.00 0.00 54 1012.7
20260903174519 99 325 0.0 1.0 0.00 0.00 0.00 55 1012.7
20260903174017 98 325 0.0 2.0 0.00 0.00 0.00 57 1012.9
20260903173522 98 273 0.0 0.0 0.00 0.00 0.00 60 1012.9
20260903172520 98 273 0.0 0.0 0.00 0.00 0.00 60 1013.0
20260903172021 98 183 0.0 0.0 0.00 0.00 0.00 57 1013.0
20260903171523 97 187 0.0 0.0 0.00 0.00 0.00 61 1013.0
20260903171042 97 188 0.0 0.0 0.00 0.00 0.00 63 1013.4
20260903170523 96 188 0.0 0.0 0.00 0.00 0.00 63 1013.4
20260903170057 97 188 0.0 0.0 0.00 0.00 0.00 60 1013.4
20260903165527 97 173 0.0 0.0 0.00 0.00 0.00 61 1013.4
20260903165030 97 173 0.0 1.0 0.00 0.00 0.00 58 1013.4
20260903164534 97 163 0.0 1.0 0.00 0.00 0.00 56 1013.4
20260903164041 97 303 0.0 0.0 0.00 0.00 0.00 61 1013.6
20260903163534 96 317 0.0 0.0 0.00 0.00 0.00 62 1013.6
20260903163028 96 217 0.0 1.0 0.00 0.00 0.00 60 1013.6
20260903162527 96 192 0.0 1.0 0.00 0.00 0.00 59 1013.9
20260903162022 95 292 0.0 1.0 0.00 0.00 0.00 64 1013.9
20260903161540 95 215 0.0 1.0 0.00 0.00 0.00 62 1013.9
20260903161018 94 277 0.0 0.0 0.00 0.00 0.00 66 1014.0
20260903160051 93 215 0.0 0.0 0.00 0.00 0.00 65 1014.0
20260903155520 92 270 0.0 1.0 0.00 0.00 0.00 69 1014.1
20260903155022 91 177 0.0 1.0 0.00 0.00 0.00 69 1014.1
20260903154536 91 177 0.0 0.0 0.00 0.00 0.00 68 1014.1
20260903154042 90 167 0.0 1.0 0.00 0.00 0.00 73 1014.3
20260903153539 89 178 0.0 1.0 0.00 0.00 0.00 71 1014.3
20260903153025 88 178 0.0 0.0 0.00 0.00 0.00 72 1014.3
20260903152552 88 188 0.0 1.0 0.00 0.00 0.00 79 1014.1
20260903152043 87 188 0.0 1.0 0.00 0.00 0.00 76 1014.1
20260903151542 87 193 0.0 0.0 0.00 0.00 0.00 81 1014.1
20260903151032 86 193 0.0 0.0 0.00 0.00 0.00 80 1014.0
20260903150538 85 190 0.0 1.0 0.00 0.00 0.00 80 1014.0
20260903150040 85 190 0.0 1.0 0.00 0.00 0.00 84 1014.0
20260903145537 84 190 0.0 0.0 0.00 0.00 0.00 83 1014.0
20260903145019 83 307 0.0 0.0 0.00 0.00 0.00 86 1014.0
20260903144522 83 307 0.0 0.0 0.00 0.00 0.00 87 1014.0
20260903144034 83 307 0.0 0.0 0.00 0.00 0.00 87 1013.9
20260903143526 82 307 0.0 0.0 0.00 0.00 0.00 89 1013.9
20260903143100 82 307 0.0 0.0 0.00 0.00 0.00 90 1013.9
20260903142543 82 307 0.0 0.0 0.00 0.00 0.00 90 1013.9
20260903142033 81 307 0.0 0.0 0.00 0.00 0.00 91 1013.9
20260903141524 81 307 0.0 0.0 0.00 0.00 0.00 92 1013.9
20260903141019 81 307 0.0 0.0 0.00 0.00 0.00 92 1014.0
20260903140532 80 307 0.0 0.0 0.00 0.00 0.00 93 1014.0
20260903140017 80 307 0.0 0.0 0.00 0.00 0.00 93 1014.0
20260903135519 80 307 0.0 0.0 0.00 0.00 0.00 94 1014.0
20260903135027 80 307 0.0 0.0 0.00 0.00 0.00 94 1014.0
20260903134519 79 307 0.0 0.0 0.00 0.00 0.00 94 1014.0
20260903134030 79 307 0.0 0.0 0.00 0.00 0.00 94 1014.0
20260903133603 79 307 0.0 0.0 0.00 0.00 0.00 94 1014.0
20260903133027 79 307 0.0 0.0 0.00 0.00 0.00 94 1014.0
20260903132528 78 307 0.0 0.0 0.00 0.00 0.00 94 1014.0
20260903132028 78 307 0.0 0.0 0.00 0.00 0.00 94 1014.0
20260903131515 78 307 0.0 0.0 0.00 0.00 0.00 94 1014.0
20260903130529 78 307 0.0 0.0 0.00 0.00 0.00 94 1014.0
20260903130022 77 307 0.0 0.0 0.00 0.00 0.00 94 1014.0
20260903125555 77 307 0.0 0.0 0.00 0.00 0.00 94 1013.9
20260903125026 77 307 0.0 0.0 0.00 0.00 0.00 94 1013.9
20260903124555 77 307 0.0 0.0 0.00 0.00 0.00 94 1013.9
20260903124025 77 307 0.0 0.0 0.00 0.00 0.00 94 1013.9
20260903123555 77 307 0.0 0.0 0.00 0.00 0.00 94 1013.9
20260903123033 77 307 0.0 0.0 0.00 0.00 0.00 94 1013.9
20260903122519 77 307 0.0 0.0 0.00 0.00 0.00 94 1013.8
20260903122018 77 307 0.0 0.0 0.00 0.00 0.00 94 1013.8
20260903121549 77 307 0.0 0.0 0.00 0.00 0.00 94 1013.8
20260903121035 77 307 0.0 0.0 0.00 0.00 0.00 94 1013.9
20260903120532 77 307 0.0 0.0 0.00 0.00 0.00 94 1013.9
20260903120045 77 307 0.0 0.0 0.00 0.00 0.00 94 1013.9
20260903115524 77 307 0.0 0.0 0.00 0.00 0.00 94 1013.9
20260903114523 76 307 0.0 0.0 0.00 0.00 0.00 94 1013.9
20260903114055 77 307 0.0 0.0 0.00 0.00 0.00 94 1013.7
20260903113521 77 307 0.0 0.0 0.00 0.00 0.00 94 1013.7
20260903113036 77 307 0.0 0.0 0.00 0.00 0.00 94 1013.7
20260903112523 77 307 0.0 0.0 0.00 0.00 0.00 94 1013.4
20260903112026 77 307 0.0 0.0 0.00 0.00 0.00 93 1013.4
20260903111543 77 307 0.0 0.0 0.00 0.00 0.00 93 1013.4
20260903111025 77 307 0.0 0.0 0.00 0.00 0.00 93 1013.3
20260903110524 77 307 0.0 0.0 0.00 0.00 0.00 93 1013.3
20260903105522 77 307 0.0 0.0 0.00 0.00 0.00 93 1013.1
20260903105025 77 307 0.0 0.0 0.00 0.00 0.00 93 1013.1
20260903104529 77 307 0.0 0.0 0.00 0.00 0.00 93 1013.1
20260903104045 77 307 0.0 0.0 0.00 0.00 0.00 93 1013.2
20260903103556 77 307 0.0 0.0 0.00 0.00 0.00 93 1013.2
20260903103022 77 307 0.0 0.0 0.00 0.00 0.00 93 1013.2
20260903102516 77 307 0.0 0.0 0.00 0.00 0.00 93 1013.0
20260903102019 77 307 0.0 0.0 0.00 0.00 0.00 93 1013.0
20260903101554 77 307 0.0 0.0 0.00 0.00 0.00 93 1013.0
20260903101038 77 307 0.0 0.0 0.00 0.00 0.00 92 1013.0
20260903100524 77 307 0.0 0.0 0.00 0.00 0.00 92 1013.0
20260903100055 77 307 0.0 0.0 0.00 0.00 0.00 92 1013.0
20260903095538 77 307 0.0 0.0 0.00 0.00 0.00 92 1013.0
20260903095023 77 307 0.0 0.0 0.00 0.00 0.00 92 1013.0
20260903094533 77 307 0.0 0.0 0.00 0.00 0.00 92 1013.0
20260903094036 77 307 0.0 0.0 0.00 0.00 0.00 92 1012.9
20260903093539 77 307 0.0 0.0 0.00 0.00 0.00 92 1012.9
20260903093041 77 307 0.0 0.0 0.00 0.00 0.00 92 1012.9
20260903092532 78 307 0.0 0.0 0.00 0.00 0.00 92 1013.0
20260903092036 77 307 0.0 0.0 0.00 0.00 0.00 92 1013.0
20260903091524 78 307 0.0 0.0 0.00 0.00 0.00 92 1013.0
20260903091029 78 307 0.0 0.0 0.00 0.00 0.00 92 1012.9
20260903090533 78 307 0.0 0.0 0.00 0.00 0.00 92 1012.9
20260903090036 78 307 0.0 0.0 0.00 0.00 0.00 92 1012.9
20260903085527 78 307 0.0 0.0 0.00 0.00 0.00 91 1012.9
20260903085035 78 307 0.0 0.0 0.00 0.00 0.00 91 1012.9
20260903084518 78 307 0.0 0.0 0.00 0.00 0.00 91 1012.9
20260903084034 78 307 0.0 0.0 0.00 0.00 0.00 91 1012.9
20260903083537 78 307 0.0 0.0 0.00 0.00 0.00 91 1012.9
20260903083050 78 307 0.0 0.0 0.00 0.00 0.00 91 1012.9
20260903082546 78 307 0.0 0.0 0.00 0.00 0.00 91 1012.9
20260903082028 78 307 0.0 0.0 0.00 0.00 0.00 90 1012.9
20260903081600 78 307 0.0 0.0 0.00 0.00 0.00 90 1012.9
20260903081043 78 307 0.0 0.0 0.00 0.00 0.00 90 1012.9
20260903080530 78 307 0.0 0.0 0.00 0.00 0.00 90 1012.9
20260903080037 78 307 0.0 0.0 0.00 0.00 0.00 90 1012.9
20260903075537 78 307 0.0 0.0 0.00 0.00 0.00 90 1012.9
20260903075022 78 307 0.0 0.0 0.00 0.00 0.00 90 1012.9
20260903074536 79 307 0.0 0.0 0.00 0.00 0.00 90 1012.9
20260903074037 79 307 0.0 0.0 0.00 0.00 0.00 90 1012.9
20260903073523 79 307 0.0 0.0 0.00 0.00 0.00 90 1012.9
20260903073021 79 307 0.0 0.0 0.00 0.00 0.00 90 1012.9
20260903072518 79 307 0.0 0.0 0.00 0.00 0.00 90 1012.9
20260903072037 79 307 0.0 0.0 0.00 0.00 0.00 90 1012.9
20260903071532 79 307 0.0 0.0 0.00 0.00 0.00 89 1012.9
20260903071039 79 307 0.0 0.0 0.00 0.00 0.00 89 1012.9
20260903070539 79 307 0.0 0.0 0.00 0.00 0.00 89 1012.9
20260903070027 79 307 0.0 0.0 0.00 0.00 0.00 89 1012.9
20260903065546 79 307 0.0 0.0 0.00 0.00 0.00 89 1012.9
20260903065022 79 307 0.0 0.0 0.00 0.00 0.00 89 1012.9
20260903064035 79 307 0.0 0.0 0.00 0.00 0.00 88 1013.1
20260903063536 79 307 0.0 0.0 0.00 0.00 0.00 88 1013.1
20260903063041 79 307 0.0 0.0 0.00 0.00 0.00 88 1013.1
20260903062537 79 307 0.0 0.0 0.00 0.00 0.00 87 1013.3
20260903062042 79 307 0.0 0.0 0.00 0.00 0.00 87 1013.3
20260903061550 79 307 0.0 0.0 0.00 0.00 0.00 87 1013.3
20260903061033 79 307 0.0 0.0 0.00 0.00 0.00 87 1013.1
20260903060527 80 307 0.0 0.0 0.00 0.00 0.00 87 1013.1
20260903060027 80 307 0.0 0.0 0.00 0.00 0.00 87 1013.1
20260903055538 80 307 0.0 0.0 0.00 0.00 0.00 87 1013.0
20260903055025 80 307 0.0 0.0 0.00 0.00 0.00 87 1013.0
20260903054532 80 307 0.0 0.0 0.00 0.00 0.00 87 1013.0
20260903054036 80 307 0.0 0.0 0.00 0.00 0.00 86 1013.1
20260903053519 80 307 0.0 0.0 0.00 0.00 0.00 86 1013.1
20260903053021 80 307 0.0 0.0 0.00 0.00 0.00 86 1013.1
20260903052527 80 307 0.0 0.0 0.00 0.00 0.00 86 1013.1
20260903052025 80 307 0.0 0.0 0.00 0.00 0.00 86 1013.1
20260903051539 80 307 0.0 0.0 0.00 0.00 0.00 86 1013.1
20260903051042 80 307 0.0 0.0 0.00 0.00 0.00 86 1013.1
20260903050521 80 307 0.0 0.0 0.00 0.00 0.00 86 1013.1
20260903050018 81 307 0.0 0.0 0.00 0.00 0.00 85 1013.1
20260903045538 81 307 0.0 0.0 0.00 0.00 0.00 85 1013.2
20260903045037 81 307 0.0 0.0 0.00 0.00 0.00 85 1013.2
20260903044526 81 307 0.0 0.0 0.00 0.00 0.00 85 1013.2
20260903044036 81 307 0.0 0.0 0.00 0.00 0.00 85 1013.0
20260903043540 81 307 0.0 0.0 0.00 0.00 0.00 84 1013.0
20260903043022 81 307 0.0 0.0 0.00 0.00 0.00 84 1013.0
20260903042558 81 307 0.0 0.0 0.00 0.00 0.00 84 1013.1
20260903042038 81 307 0.0 0.0 0.00 0.00 0.00 83 1013.1
20260903041539 81 307 0.0 0.0 0.00 0.00 0.00 83 1013.1
20260903041031 82 307 0.0 0.0 0.00 0.00 0.00 83 1013.2
20260903040529 82 307 0.0 0.0 0.00 0.00 0.00 83 1013.2
20260903040015 82 307 0.0 0.0 0.00 0.00 0.00 83 1013.2
20260903035525 82 307 0.0 0.0 0.00 0.00 0.00 83 1013.3
20260903035017 82 307 0.0 0.0 0.00 0.00 0.00 83 1013.3
20260903034533 82 307 0.0 0.0 0.00 0.00 0.00 83 1013.3
20260903034037 82 307 0.0 0.0 0.00 0.00 0.00 82 1013.3
20260903033530 82 307 0.0 0.0 0.00 0.00 0.00 82 1013.3
20260903033034 82 307 0.0 0.0 0.00 0.00 0.00 82 1013.3
20260903032535 82 307 0.0 0.0 0.00 0.00 0.00 82 1013.3
20260903031531 83 307 0.0 0.0 0.00 0.00 0.00 81 1013.3
20260903031019 83 307 0.0 0.0 0.00 0.00 0.00 81 1013.1
20260903030524 83 307 0.0 0.0 0.00 0.00 0.00 80 1013.1
20260903030020 83 307 0.0 0.0 0.00 0.00 0.00 79 1013.1
20260903025536 83 307 0.0 0.0 0.00 0.00 0.00 79 1013.1
20260903025033 83 307 0.0 0.0 0.00 0.00 0.00 79 1013.1
20260903024548 83 307 0.0 0.0 0.00 0.00 0.00 78 1013.1
20260903024034 84 307 0.0 0.0 0.00 0.00 0.00 78 1013.2
20260903023526 84 307 0.0 0.0 0.00 0.00 0.00 78 1013.2
20260903023015 84 307 0.0 0.0 0.00 0.00 0.00 78 1013.2
20260903022534 84 307 0.0 0.0 0.00 0.00 0.00 77 1013.0
20260903022017 84 307 0.0 0.0 0.00 0.00 0.00 77 1013.0
20260903021524 85 307 0.0 0.0 0.00 0.00 0.00 76 1013.0
20260903021016 85 307 0.0 0.0 0.00 0.00 0.00 76 1012.9
20260903020525 85 307 0.0 0.0 0.00 0.00 0.00 76 1012.9
20260903020030 85 307 0.0 0.0 0.00 0.00 0.00 76 1012.9
20260903015026 85 307 0.0 0.0 0.00 0.00 0.00 75 1012.9
20260903014534 85 307 0.0 0.0 0.00 0.00 0.00 75 1012.9
20260903014039 86 307 0.0 0.0 0.00 0.00 0.00 74 1012.6
20260903013527 86 307 0.0 0.0 0.00 0.00 0.00 74 1012.6
20260903013032 86 307 0.0 0.0 0.00 0.00 0.00 73 1012.6
20260903012532 86 307 0.0 0.0 0.00 0.00 0.00 74 1012.4
20260903012018 86 307 0.0 0.0 0.00 0.00 0.00 73 1012.4
20260903011550 86 307 0.0 0.0 0.00 0.00 0.00 73 1012.4
20260903011031 87 307 0.0 0.0 0.00 0.00 0.00 73 1012.4
20260903010020 87 307 0.0 0.0 0.00 0.00 0.00 72 1012.4
20260903005551 87 307 0.0 0.0 0.00 0.00 0.00 72 1012.4
20260903005017 87 307 0.0 0.0 0.00 0.00 0.00 71 1012.4
20260903004526 88 307 0.0 0.0 0.00 0.00 0.00 71 1012.4
20260903004032 88 307 0.0 0.0 0.00 0.00 0.00 71 1012.3
20260903003535 88 307 0.0 0.0 0.00 0.00 0.00 70 1012.3
20260903002525 88 307 0.0 0.0 0.00 0.00 0.00 69 1012.3
20260903002053 89 307 0.0 0.0 0.00 0.00 0.00 68 1012.3
20260903001524 89 307 0.0 0.0 0.00 0.00 0.00 69 1012.3
20260903001040 89 307 0.0 1.0 0.00 0.00 0.00 68 1012.4
20260903000545 89 307 0.0 1.0 0.00 0.00 0.00 67 1012.4
20260903000048 90 307 0.0 0.0 0.00 0.00 0.00 67 1012.4
20260902235529 90 307 0.0 0.0 0.00 0.00 0.00 66 1012.3
20260902235023 90 307 0.0 0.0 0.00 0.00 0.00 66 1012.3
20260902234528 90 307 0.0 0.0 0.00 0.00 0.00 66 1012.3
20260902234103 90 307 0.0 0.0 0.00 0.00 0.00 65 1012.3
20260902233525 91 307 0.0 0.0 0.00 0.00 0.00 65 1012.3
20260902233030 91 307 0.0 0.0 0.00 0.00 0.00 64 1012.3
20260902232518 91 307 0.0 0.0 0.00 0.00 0.00 65 1012.2
20260902232036 91 302 0.0 0.0 0.00 0.00 0.00 64 1012.2
20260902231521 91 302 0.0 0.0 0.00 0.00 0.00 65 1012.2
20260902231029 91 302 0.0 0.0 0.00 0.00 0.00 65 1012.0
20260902230020 92 302 0.0 0.0 0.00 0.00 0.00 65 1012.0
20260902225521 92 302 0.0 0.0 0.00 0.00 0.00 64 1012.1